Regional Weather Roundup
Issued by NWS

Home | Current Version | Previous Version | Text Only | Print | Product List | Glossary On
Versions: 1 2 3 4 5 6 7 8 9 10 11 12 13 14 15 16 17 18 19 20 21 22 23 24 25 26 27 28 29 30 31 32 33 34 35 36 37 38 39 40 41 42 43 44 45 46 47 48 49 50
000
ASHW40 PHFO 191443
RWRHI

WEATHER ROUNDUP FOR HAWAII
NATIONAL WEATHER SERVICE HONOLULU HI
400 AM HST THU APR 19 2018

THIS IS AN AUTOMATED REPORT THAT HAS NOT BEEN QUALITY CONTROLLED.

NOTE..."FAIR" INDICATES FEW OR NO CLOUDS BELOW 12,000 FEET WITH NO
SIGNIFICANT WEATHER AND/OR OBSTRUCTIONS TO VISIBILITY.

* - THESE SITES REPORT LIMITED FIELDS
# - BUOY DATA PROVIDED BY PACIFIC ISLANDS OCEAN OBSERVING SYSTEM.

HIZ001>004-191500-
KAUAI-NIIHAU-

CITY           SKY/WX    TMP DP  RH WIND       PRES   REMARKS
LIHUE APT      CLOUDY    74  70  87 NE16      30.03S
PORT ALLEN*      N/A     73 N/A N/A NE14G20     N/A
POIPU*           N/A     73 N/A N/A NE8G18      N/A
PRINCEVILLE*     N/A     72 N/A N/A SE7         N/A
KOKOLE POINT*  NOT AVBL
MOLOAA DAIRY*    N/A     72  68  88 E5G14       N/A
WAIMEA HTS*      N/A     72  64  78 E5G10       N/A
PUU OPAE*        N/A     64  59  82 NE2         N/A
PUU LUA*       NOT AVBL
MAKAHA RIDGE*    N/A     66  64  94 CALM        N/A
$$

HIZ005>011-191500-
OAHU-

CITY           SKY/WX    TMP DP  RH WIND       PRES   REMARKS
HONOLULU       MOCLDY    75  66  73 NE14      30.00F
KALAELOA       CLOUDY    73  67  81 NE5       30.01F
KANEOHE MCB    CLOUDY    75  68  78 E13G18    29.99F
WHEELER FIELD  FAIR      69  67  95 E3        30.01F
BELLOWS*         N/A    N/A N/A N/A NE18        N/A
KAHUKU*          N/A    N/A N/A N/A NE9G16      N/A
WHEELER*         N/A    N/A N/A N/A NE3         N/A
WAIANAE HARBOR   N/A    N/A N/A N/A NE7G15      N/A
DILLINGHAM*    NOT AVBL
KAHUKU TRN*      N/A     70  64  83 W9G17       N/A
KAWAILOA*        N/A     68  64  88 E10G21      N/A
KII*             N/A     73  66  78 E16         N/A
MAKUA RANGE*     N/A     72  59  64 SE9G16      N/A
OAHU FOREST NW   N/A     66  63  88 E13G32      N/A
SCHOFIELD BRK*   N/A     66  64  94 CALM        N/A
SCHOFIELD S*   NOT AVBL
WAIANAE VLY*     N/A     72  63  73 S12         N/A
KUAOKALA*        N/A     70  64  83 NE14G26     N/A
HONOULIUULI*   NOT AVBL
MOKUOLOE IS*   NOT AVBL
PALEHUA*         N/A     63  63 100 NE17G26     N/A
WAIAWA PHB*    NOT AVBL
$$

HIZ012>013-191500-
MOLOKAI-

CITY           SKY/WX    TMP DP  RH WIND       PRES   REMARKS
MOLOKAI AIRPT    N/A     73  66  78 NE14      30.01S
KALAUPAPA      NOT AVBL
MAKAPULAPAI*     N/A     73  66  78 E18G28      N/A
MOLOKAI 1*     NOT AVBL
PUU ALII*        N/A     57  57  99 N2G12       N/A
$$

HIZ016-191500-
KAHOOLAWE-

CITY           SKY/WX    TMP DP  RH WIND       PRES   REMARKS
KAHOOLAWE*     NOT AVBL
HAKIOAWA*        N/A     70  66  88 MISG      30.41S
HONOKANAIA*    NOT AVBL
KANELOA*         N/A     72  66  83 E16G26    30.05S
KEALIALALO*    NOT AVBL
LUA MAKIKA*    NOT AVBL
$$

HIZ014>015-191500-
LANAI-

CITY           SKY/WX    TMP DP  RH WIND       PRES   REMARKS
LANAI CITY     FAIR      67  64  90 NE9       30.03F
LANAI 1*       NOT AVBL
$$

HIZ017>028-191500-
MAUI-

CITY           SKY/WX    TMP DP  RH WIND       PRES   REMARKS
KAHULUI        MOCLDY    72  70  93 NE15      29.99F
KAPALUA-W MAUI NOT AVBL
HANA AIRPORT   NOT AVBL
HANA*            N/A     72 N/A N/A NE8G15      N/A
HALEAKALA SUMM   N/A     43  27  52 E15         N/A
MAALAEA BAY*     N/A     73 N/A N/A N18G25      N/A
HALEAKALA*     NOT AVBL
KAUPO GAP*     NOT AVBL
KULA 1*          N/A     46  43  87 E3          N/A
$$

HIZ023>026-191500-
BIG ISLAND OF HAWAII COAST AND LOWER SLOPES-

CITY           SKY/WX    TMP DP  RH WIND       PRES   REMARKS
KAILUA KONA    CLOUDY    74  65  73 E3        29.95S
HILO           PTCLDY    69  66  90 SW6       30.01F
HONOKAA*         N/A     66 N/A N/A VRB1        N/A
KAWAIHAE MWT*    N/A     77 N/A N/A NW3         N/A
KAWAIHAE*        N/A     77 N/A N/A E2        29.95S
SOUTH POINT*     N/A     68 N/A N/A N14G21      N/A
UPOLU AIRPORT* NOT AVBL
KAMUELA*       PTSUNNY   63  61  94 NE12      30.08R
HAKALAU*         N/A     48  48 100 S6G12       N/A
KALOKO-HONOKO*   N/A     72  66  83 E3        29.94S
PALI 2*          N/A     63  59  88 N12G17      N/A
KEALAKOMO*       N/A     73  63  68 N10G18      N/A
KAUPULEHU*       N/A     66  63  88 SE7         N/A
KAPAPALA*        N/A     60  58  93 N3          N/A
LOWER KAHUKU*    N/A     61  59  94 VRB3G9      N/A
PUHE CS*         N/A     75  63  64 E3G10       N/A
PUHO CS*         N/A     70  64  80 E2          N/A
PTA KEAMUKU*     N/A     57  55  94 E6          N/A
WAIKOLOA*        N/A     66  59  77 E13G18      N/A
$$

HIZ027>028-191500-
BIG ISLAND OF HAWAII INTERIOR AND SUMMMITS-

CITY           SKY/WX    TMP DP  RH WIND       PRES   REMARKS
BRADSHAW FIELD NOT AVBL
MK VISITOR CEN   N/A     48  18  29 E6          N/A
MAUNA KEA*       N/A     32  14  47 CALM        N/A
MAUNA LOA*     NOT AVBL
MAUNA LOA 1*   NOT AVBL
PTA KIPUKA*      N/A     52  52 100 NW1         N/A
PTA RANGE 17*    N/A     55  50  82 E3G15       N/A
PTA WEST*        N/A     55  52  88 NE1G8       N/A
NENE CABIN*      N/A     48  45  87 NE5G10      N/A
AHUMOA*          N/A     48  43  81 E5          N/A
PTA PORTABLE*  NOT AVBL
PUU MALI*        N/A     52  45  76 SE2G10      N/A
$$

HIC003-191500-
NORTHWEST ISLANDS-

CITY           SKY/WX    TMP DP  RH WIND       PRES   REMARKS
MIDWAY ISLAND  CLOUDY    66  57  72 NE7       30.19S
MIDWAY NOS*      N/A     66 N/A N/A MISG      30.16F
FRENCH FRIGATE NOT AVBL
$$

PHZ110>124-180-191500-
BUOY REPORTS

STATION/POSITION TIME  TEMP    WIND        PRES    WAVE   SWELL
                       AIR SEA DIR/SP/G            HT/PER HT/DIR
                 (UTC) (F)     (DEG/KT/KT) (MB)    (FT/S) (FT/D)
BUOY 51001       1420   80 81   60/ 10/ 14 1008.6
BUOY 51101       1350   72 73   90/ 12/ 14 1018.5S   7/ 8   7
BUOY 51100       NOT AVBL
BUOY 51002       1420   78 78   80/ 17/ 21 1013.2
BUOY 51003       1350   77 79  100/ 10/ 12 1013.6F   7/ 8   7/100
BUOY 51004       1420   77 79   80/ 16/ 19 1014.4
WAIMEA BAY#      NOT AVBL
MOKAPU POINT#    1404      76                N/A     7/ 7   2/ 80
LANAI#           NOT AVBL
BARBERS PT 2#    NOT AVBL
PAUWELA#         1400      76                N/A     7/ 9   2/ 80
HILO#            1357      76                N/A     7/ 9   2/ 90
KANEOHE BAY#     NOT AVBL
KANEOHE BAY 2#   NOT AVBL
HANALEI#         1422      77                N/A     7/10   3/330
KAHULUI HARBOR   1412   72 76   20/ 17/ 19 1015.4
HONOLULU HARBOR  1412   75 77   60/  6/ 11 1015.5
PEARL HARBOR#    1400      77                N/A     4/ 6   2/170
KILO NALU        NOT AVBL
HILO HARBOR      1412   69 75  220/  6/  8 1015.7
MOKUOLOE         1336   75 77   80/  9/ 12 1016.4F
NAWILIWILI       1412   74 78   50/ 11/ 14 1016.6
WHOTS BUOY       NOT AVBL
BUOY 51028       NOT AVBL
$$

......................KEY........................................
  SKY/WX - SKY CONDITIONS/PRESENT WEATHER
  TMP    - TEMPERATURE IN FAHRENHEIT
  DWPT   - DEWPOINT IN FAHRENHEIT
  RH     - RELATIVE HUMIDITY IN PERCENT
  WIND   - DIRECTION AND SPEED /MPH FOR ISLANDS...KTS FOR BUOYS/
  PRES   - MEAN SEA LEVEL PRESSURE IN INCHES OF HG
  VSB    - VISIBILITY IN MILES
  HX     - HEAT INDEX
  WCI    - WIND CHILL INDEX
  VRB    - VARIABLE WIND DIRECTION
  N/A    - NOT AVAILABLE



USA.gov is the U.S. government's official web portal to all federal, state and local government web resources and services.